This demonstration page uses our WeatherBlox Daily Observations layout. Learn more.

Left ArrowRight Arrow

39.08367, -84.50855

Hourly Observations for September 10, 2017

Temp ( °F °C ) Dew Point ( °F °C ) Humidity (%) Winds ( mph kmh ) Pressure ( in mb ) Visibility ( mi km ) Precip ( " mm )
12:53 am 00:53 Clear 50 10 49 9.4 96 96 NNE 6 9 30.36 1028 10 16 N/A
1:53 am 01:53 Clear 53 11.7 50 10 89 89 N N/A 30.36 1028 10 16 N/A
2:53 am 02:53 Clear 52 11.1 49 9.4 89 89 NE 5 7 30.36 1028 10 16 N/A
3:53 am 03:53 Clear 49 9.4 48 8.9 97 97 NE 3 6 30.36 1028 10 16 N/A
4:16 am 04:16 Clear with Mist and Fog 47 8.3 47 8.3 100 100 N N/A 30.36 1028 2 3 N/A
4:23 am 04:23 Clear with Mist and Fog 47 8.3 47 8.3 100 100 N N/A 30.36 1028 3 5 N/A
4:53 am 04:53 Clear 48 8.9 48 8.9 100 100 N N/A 30.37 1028 7 11 N/A
5:25 am 05:25 Clear with Mist and Fog 46 7.8 46 7.8 100 100 N N/A 30.36 1028 2 3 N/A
5:34 am 05:34 Clear with Fog 47 8.3 47 8.3 100 100 N N/A 30.36 1028 1 1 N/A
5:44 am 05:44 Clear with Mist and Fog 47 8.3 47 8.3 100 100 N N/A 30.36 1028 3 4 N/A
5:53 am 05:53 Clear with Mist and Fog 46 7.8 46 7.8 100 100 N N/A 30.38 1029 4 6 N/A
5:55 am 05:55 Clear with Mist and Fog 46 7.8 46 7.8 100 100 N N/A 30.39 1029 2 2 N/A
6:14 am 06:14 Clear with Mist and Fog 46 7.8 46 7.8 100 100 N N/A 30.39 1029 2 3 N/A
6:16 am 06:16 Mostly Clear with Mist and Fog 46 7.8 46 7.8 100 100 N N/A 30.39 1029 2 3 N/A
6:18 am 06:18 Mostly Cloudy with Mist and Fog 45 7.2 45 7.2 100 100 N N/A 30.39 1029 1 1 N/A
6:35 am 06:35 Mostly Clear with Mist and Fog 47 8.3 47 8.3 100 100 N N/A 30.39 1029 1 2 N/A
6:38 am 06:38 Mostly Clear with Mist and Fog 47 8.3 47 8.3 100 100 N N/A 30.39 1029 4 6 N/A
6:53 am 06:53 Clear with Mist and Fog 47 8.3 47 8.3 100 100 N N/A 30.39 1029 4 6 N/A
6:56 am 06:56 Clear 47 8.3 47 8.3 100 100 N N/A 30.39 1029 2 3 N/A
7:03 am 07:03 Clear with Patchy Fog 46 7.8 46 7.8 100 100 N N/A 30.39 1029 7 11 N/A
7:53 am 07:53 Sunny with Patchy Fog 46 7.8 46 7.8 100 100 N N/A 30.41 1030 10 16 N/A
8:53 am 08:53 Sunny 54 12.2 51 10.6 90 90 NNE 3 6 30.42 1030 10 16 N/A
9:53 am 09:53 Sunny 58 14.4 52 11.1 81 81 NE 7 11 30.43 1031 10 16 N/A
10:53 am 10:53 Sunny 65 18.3 52 11.1 63 63 NE 8 13 30.42 1030 10 16 N/A
11:53 am 11:53 Sunny 69 20.6 50 10 51 51 ENE 12 19 30.40 1030 10 16 N/A
12:53 pm 12:53 Sunny 71 21.7 49 9.4 46 46 NE 9 15 30.39 1029 10 16 N/A
1:53 pm 13:53 Sunny 73 22.8 48 8.9 41 41 E 8 13 30.38 1029 10 16 N/A
2:53 pm 14:53 Sunny 73 22.8 47 8.3 40 40 NNE 13 20 30.36 1028 10 16 N/A
3:53 pm 15:53 Sunny 74 23.3 48 8.9 40 40 NE 9 15 30.34 1027 10 16 N/A
4:53 pm 16:53 Sunny 74 23.3 49 9.4 41 41 NE 12 19 30.32 1027 10 16 N/A
5:53 pm 17:53 Sunny 73 22.8 49 9.4 43 43 ENE 8 13 30.32 1027 10 16 N/A
6:45 pm 18:45 Sunny 70 21.1 48 8.9 46 46 NE 12 19 30.27 1025 10 16 N/A
6:53 pm 18:53 Sunny 69 20.6 48 8.9 47 47 NE 9 15 30.31 1027 10 16 N/A
7:53 pm 19:53 Sunny 64 17.8 49 9.4 58 58 ENE 5 7 30.32 1027 10 16 N/A
8:53 pm 20:53 Clear 57 13.9 52 11.1 83 83 N N/A 30.33 1027 10 16 N/A
9:53 pm 21:53 Clear 54 12.2 51 10.6 90 90 N N/A 30.34 1027 10 16 N/A
10:53 pm 22:53 Clear 53 11.7 51 10.6 93 93 N N/A 30.32 1027 10 16 N/A
11:53 pm 23:53 Clear 51 10.6 50 10 96 96 N N/A 30.32 1027 10 16 N/A

Powered by AerisWeather